Charleroi, Belgium

2:10 PM CEST on June 22, 2017 (GMT +0200)
Brussels South

Weather History for EBCI - September, 2012

Change the Weather History Date:

Sunday, September 30, 2012

  Actual Average Record
Temperature  
Mean Temperature 51 °F -  
Max Temperature 61 °F 56 °F 77 °F (2011)
Min Temperature 41 °F 44 °F 37 °F (2001)
Degree Days  
Heating Degree Days 14    
Growing Degree Days 1 (Base 50)    
Moisture  
Dew Point 42 °F    
Average Humidity 72    
Maximum Humidity 93    
Minimum Humidity 39    
Precipitation  
Precipitation 0.00 in - - ()
Sea Level Pressure  
Sea Level Pressure 30.17 in    
Wind  
Wind Speed 5 mph ()    
Max Wind Speed 9 mph    
Max Gust Speed -    
Visibility 9.7 miles    
Events      
Averages and records for this station are not official NWS values.
T = Trace of Precipitation, MM = Missing Value Source: Averaged Metar Reports

Daily Weather History Graph

Daily Weather History Graph

Search for Another Location

Airport or City:

Trip Planner

Search our weather history database for the weather conditions in past years. The results will help you decide how hot, cold, wet, or windy it might be!

Date:

Astronomy

Sep. 30, 2012 Rise Set
Actual Time 7:41 AM CEST 7:21 PM CEST
Civil Twilight 7:08 AM CEST 7:54 PM CEST
Nautical Twilight 6:30 AM CEST 8:32 PM CEST
Astronomical Twilight 5:51 AM CEST 9:11 PM CEST
Moon 7:07 PM CEST (9/30) 8:03 AM CEST (9/30)
Length of Visible Light 12h 45m
Length of Day
11h 40m
Full, 100% of the Moon is Illuminated
Sep 30
Full
Oct 8
Last Quarter
Oct 15
New
Oct 22
First Quarter
Oct 29
Full

Hourly Weather History & Observations

Time (CEST) Temp. Windchill Dew Point Humidity Pressure Visibility Wind Dir Wind Speed Gust Speed Precip Events Conditions
12:20 AM 44.6 °F - 41.0 °F 87% 30.18 in - Variable 2.3 mph - N/A   Clear
12:50 AM 44.6 °F 41.4 °F 41.0 °F 87% 30.18 in - SSW 5.8 mph - N/A   Clear
1:20 AM 42.8 °F 41.1 °F 41.0 °F 93% 30.18 in - SSW 3.5 mph - N/A   Clear
1:50 AM 44.6 °F 42.2 °F 41.0 °F 87% 30.18 in - SW 4.6 mph - N/A   Clear
2:00 AM 45 °F - 42 °F 83% 30.21 in 16 mi SW 4.5 mph - -  
2:20 AM 42.8 °F 40.1 °F 41.0 °F 93% 30.18 in - SSW 4.6 mph - N/A   Clear
2:50 AM 44.6 °F 42.2 °F 41.0 °F 87% 30.18 in - SSW 4.6 mph - N/A   Clear
3:20 AM 44.6 °F 42.2 °F 41.0 °F 87% 30.18 in - SSW 4.6 mph - N/A   Clear
3:50 AM 44.6 °F 42.2 °F 41.0 °F 87% 30.18 in - SW 4.6 mph - N/A   Clear
4:20 AM 42.8 °F 39.3 °F 41.0 °F 93% 30.18 in - SW 5.8 mph - N/A   Clear
4:50 AM 42.8 °F 39.3 °F 41.0 °F 93% 30.18 in - SW 5.8 mph - N/A   Clear
5:00 AM 42 °F - 40 °F 91% 30.21 in 9 mi SW 6.7 mph - -  
5:20 AM 42.8 °F 39.3 °F 39.2 °F 87% 30.18 in - SW 5.8 mph - N/A   Clear
5:50 AM 42.8 °F 39.3 °F 39.2 °F 87% 30.18 in - SSW 5.8 mph - N/A   Clear
6:20 AM 42.8 °F 39.3 °F 39.2 °F 87% 30.18 in - SSW 5.8 mph - N/A   Clear
6:50 AM 42.8 °F 39.3 °F 39.2 °F 87% 30.18 in - SSW 5.8 mph - N/A   Clear
7:20 AM 42.8 °F 39.3 °F 39.2 °F 87% 30.18 in - SW 5.8 mph - N/A   Clear
7:50 AM 42.8 °F 40.1 °F 39.2 °F 87% 30.18 in - SSW 4.6 mph - N/A   Clear
8:00 AM 42 °F - 40 °F 88% 30.22 in 6 mi SSW 4.5 mph - -   Clear
8:20 AM 42.8 °F 39.3 °F 39.2 °F 87% 30.18 in - SSW 5.8 mph - N/A   Clear
8:50 AM 44.6 °F 40.7 °F 41.0 °F 87% 30.21 in - SSW 6.9 mph - N/A   Clear
9:20 AM 46.4 °F 43.5 °F 42.8 °F 87% 30.21 in - SSW 5.8 mph - N/A   Clear
9:50 AM 48.2 °F - 42.8 °F 82% 30.21 in - SW 6.9 mph - N/A   Clear
10:20 AM 50.0 °F - 42.8 °F 76% 30.21 in - SW 5.8 mph - N/A   Clear
10:50 AM 53.6 °F - 44.6 °F 72% 30.21 in - SW 5.8 mph - N/A   Clear
11:00 AM 54 °F - 45 °F 62% 30.23 in 11 mi SW 6.7 mph - -   Clear
11:20 AM 55.4 °F - 42.8 °F 63% 30.21 in - WSW 5.8 mph - N/A   Clear
11:50 AM 57.2 °F - 41.0 °F 55% 30.21 in 6.2 mi SW 6.9 mph - N/A   Partly Cloudy
12:20 PM 57.2 °F - 39.2 °F 51% 30.21 in 6.2 mi SW 8.1 mph - N/A   Partly Cloudy
12:50 PM 57.2 °F - 41.0 °F 55% 30.21 in 6.2 mi SSW 6.9 mph - N/A   Partly Cloudy
1:20 PM 59.0 °F - 42.8 °F 55% 30.18 in 6.2 mi SW 6.9 mph - N/A   Partly Cloudy
1:50 PM 59.0 °F - 41.0 °F 51% 30.18 in 6.2 mi WSW 8.1 mph - N/A   Partly Cloudy
2:00 PM 59 °F - 40 °F 39% 30.20 in 17 mi WSW 8.9 mph - -   Scattered Clouds
2:20 PM 60.8 °F - 41.0 °F 48% 30.18 in 6.2 mi WSW 5.8 mph - N/A   Partly Cloudy
2:50 PM 60.8 °F - 41.0 °F 48% 30.18 in 6.2 mi SW 6.9 mph - N/A   Partly Cloudy
3:20 PM 60.8 °F - 42.8 °F 52% 30.18 in 6.2 mi SW 8.1 mph - N/A   Partly Cloudy
3:50 PM 60.8 °F - 42.8 °F 52% 30.15 in 6.2 mi SW 9.2 mph - N/A   Partly Cloudy
4:20 PM 60.8 °F - 41.0 °F 48% 30.15 in - SW 6.9 mph - N/A   Clear
4:50 PM 60.8 °F - 42.8 °F 52% 30.15 in - SW 9.2 mph - N/A   Clear
5:00 PM 61 °F - 44 °F 41% 30.16 in 19 mi SW 8.9 mph - -   Clear
5:20 PM 59.0 °F - 42.8 °F 55% 30.15 in - SW 8.1 mph - N/A   Clear
5:50 PM 59.0 °F - 42.8 °F 55% 30.12 in - SW 8.1 mph - N/A   Clear
6:20 PM 59.0 °F - 42.8 °F 55% 30.12 in - SW 8.1 mph - N/A   Clear
6:50 PM 57.2 °F - 42.8 °F 59% 30.12 in - SW 6.9 mph - N/A   Clear
7:20 PM 55.4 °F - 42.8 °F 63% 30.12 in - SW 6.9 mph - N/A   Clear
7:50 PM 53.6 °F - 42.8 °F 67% 30.12 in - SSW 6.9 mph - N/A   Clear
8:00 PM 53 °F - 43 °F 61% 30.14 in 19 mi SSW 6.7 mph - -   Clear
8:20 PM 51.8 °F - 42.8 °F 71% 30.12 in - SSW 6.9 mph - N/A   Clear
8:50 PM 51.8 °F - 44.6 °F 76% 30.12 in - SSW 4.6 mph - N/A   Clear
9:20 PM 51.8 °F - 44.6 °F 76% 30.12 in - South 4.6 mph - N/A   Clear
9:50 PM 50.0 °F - 44.6 °F 82% 30.12 in - South 5.8 mph - N/A   Clear
10:20 PM 50.0 °F - 42.8 °F 76% 30.12 in - South 5.8 mph - N/A   Clear
10:50 PM 50.0 °F - 44.6 °F 82% 30.12 in - South 4.6 mph - N/A   Clear
11:00 PM 50 °F - 44 °F 73% 30.14 in 12 mi South 4.5 mph - -   Clear
11:20 PM 48.2 °F - 42.8 °F 82% 30.12 in - SSW 5.8 mph - N/A   Clear
11:50 PM 48.2 °F - 42.8 °F 82% 30.09 in - SSW 6.9 mph - N/A   Clear